{"data":{"norad_id":51776,"epoch":"2026-05-24T23:11:20.188032Z","epoch_age_seconds":68086,"freshness":"FRESH","line1":"1 51776U 22017J   26144.96620588 -.00003087  00000+0 -17588-3 0  9990","line2":"2 51776  53.2138 356.6998 0001397  95.9893 264.1258 15.08856967234089","mean_motion":15.08856967,"eccentricity":0.0001397,"inclination_deg":53.2138,"raan_deg":356.6998,"arg_perigee_deg":95.9893,"mean_anomaly_deg":264.1258,"bstar":-0.00017588,"rev_number":23408,"period_min":95.436481488573,"perigee_km":538.72510747346,"apogee_km":540.65794876422,"semimajor_km":6917.8285281188,"source":"CELESTRAK","updated_at":"2026-05-25T13:38:16.951141Z"}}